Wetbulb
42.82 43.02 43.30 43.52 43.88 43.92 44.05 44.51 44.40 43.76 43.16 43.37 43.32 43.57 43.86 44.03 44.07 44.54 42.52 45.83 41.36 35.50 37.18 39.29 39.99 36.79 37.12 38.69 34.71 37.26 35.16 35.74 34.53 32.67 32.15 33.05 32.65 34.96 34.25 35.78 35.10 32.74 31.24 31.30 32.69 29.83 27.83 44.89 43.52 38.32 43.95 46.84 47.34 47.11
43.31 43.33 43.44 43.84 44.18 44.47 45.14 45.22 45.10 44.59 43.12 43.21 43.28 43.47 43.50 43.57 43.78 44.32 40.37 44.17 45.99 37.53 37.66 42.83 43.36 43.51 42.91 41.61 38.00 38.65 37.68 37.53 39.42 36.43 37.45 36.62 34.31 36.67 35.12 30.30 40.12 32.40 37.35 35.24 36.22 36.30 44.28 46.43 46.59 47.75 48.05 46.64 47.07 47.21
43.33 43.47 43.88 44.31 44.73 45.18 44.62 44.03 44.59 44.49 43.48 43.35 43.38 43.59 44.00 44.27 44.73 44.59 42.14 43.71 41.75 35.83 37.05 38.43 37.64 42.55 45.37 44.69 46.78 36.63 40.18 39.45 42.24 45.00 40.23 38.99 33.41 37.45 31.72 34.63 36.67 40.81 42.06 38.97 38.06 42.53 43.15 45.01 47.71 48.03 47.67 46.95 47.43 47.56
43.53 44.09 44.26 44.42 44.46 44.64 45.11 44.43 44.30 44.27 43.72 43.48 43.64 43.92 44.32 44.42 44.96 44.99 42.26 45.06 42.09 37.93 30.80 34.67 43.79 40.13 44.67 46.66 44.93 44.89 43.72 44.70 44.15 43.35 40.64 38.18 35.69 41.12 36.23 38.48 37.98 40.81 41.19 39.80 39.43 42.71 44.06 45.53 47.09 46.40 46.15 47.00 46.27 46.59
44.11 44.25 45.01 45.39 45.34 45.62 45.88 44.74 44.35 44.20 43.89 43.94 44.14 44.36 44.61 45.02 45.32 44.34 44.71 45.79 46.37 38.33 32.30 34.00 41.72 43.99 45.18 44.88 44.42 44.24 42.84 40.93 39.32 38.71 37.33 36.87 40.13 39.59 40.28 39.98 37.66 42.53 40.28 38.46 37.65 43.54 43.85 44.43 45.69 45.72 43.94 43.86 43.99 43.22
44.01 45.33 45.26 45.46 45.59 45.66 45.57 44.70 44.50 44.16 44.09 44.15 44.64 44.95 45.13 45.05 45.12 42.21 35.10 42.31 46.83 45.43 34.81 31.54 42.00 42.33 44.04 43.93 43.32 43.18 42.21 40.72 40.16 38.42 38.05 40.02 42.89 40.87 35.80 34.36 41.21 43.33 44.24 43.10 41.55 42.92 43.26 44.47 45.39 43.64 42.09 41.32 40.43 39.90
45.30 45.15 45.38 45.33 45.53 45.77 45.57 45.10 44.68 44.60 44.59 44.75 45.10 45.36 45.49 45.45 44.28 38.02 38.15 43.44 45.60 45.37 35.61 33.44 34.92 41.85 42.85 42.57 42.07 41.14 42.48 40.98 38.60 37.14 35.83 38.85 41.27 40.43 37.04 33.76 38.01 39.32 40.21 41.01 40.71 40.43 40.53 40.10 38.99 38.99 39.10 38.99 38.88 37.86
44.77 44.70 44.70 44.25 44.45 44.83 45.44 45.43 45.50 45.23 45.18 45.27 45.36 45.30 45.16 44.56 43.92 40.72 46.70 44.97 44.68 39.35 39.39 34.64 35.00 37.65 43.49 38.24 37.17 42.77 38.75 40.14 39.27 39.76 39.41 38.58 40.12 39.89 33.77 34.13 36.50 36.85 37.54 39.02 37.64 38.54 38.36 38.71 36.39 34.41 34.97 34.62 33.89 31.21
44.30 44.23 44.59 44.49 45.17 44.62 45.40 45.53 45.67 45.90 45.69 45.73 45.90 45.78 42.65 40.42 37.32 42.03 45.16 45.19 46.27 41.47 35.15 35.46 32.62 31.55 42.16 39.07 39.74 39.88 41.01 34.60 40.38 37.43 36.58 38.73 36.87 31.84 27.93 30.74 30.90 30.46 31.47 32.72 35.29 37.61 36.01 33.58 32.81 32.86 32.41 31.65 30.13 27.28
44.28 44.62 44.13 44.42 44.81 45.11 45.27 45.45 45.46 45.86 46.30 45.44 41.36 36.77 33.67 40.12 45.32 44.27 39.42 34.81 35.50 39.32 40.14 35.34 39.63 34.49 39.68 38.44 37.08 37.08 37.79 34.67 31.94 34.39 37.57 34.55 26.60 28.42 29.43 29.11 29.25 29.94 31.47 31.72 30.98 32.37 30.14 30.94 29.79 28.56 27.72 27.62 26.79 25.41
44.37 43.20 44.01 44.87 45.12 45.23 45.28 45.54 45.77 45.84 44.30 41.23 35.13 35.45 41.84 44.99 41.34 36.66 33.30 34.54 34.75 33.57 37.69 38.42 38.66 34.67 40.27 35.36 34.82 39.13 34.12 35.74 29.65 33.17 33.39 32.60 26.18 25.31 28.30 28.24 28.69 28.80 29.16 28.74 28.90 28.50 28.24 28.67 29.04 27.50 25.31 25.15 24.53 23.88
42.19 42.27 44.26 43.94 45.29 45.29 45.40 45.22 45.23 45.08 42.87 41.58 39.45 40.69 41.26 38.07 36.46 34.14 32.50 34.01 32.93 31.80 35.29 34.93 37.04 39.30 38.22 41.66 36.73 37.94 33.64 35.00 28.34 36.70 33.40 29.20 24.45 26.05 26.44 25.35 26.13 26.73 26.28 25.78 26.97 26.05 26.24 26.37 26.13 24.87 23.64 22.61 21.94 21.85
41.86 41.91 42.83 41.61 43.48 45.37 45.21 45.29 44.91 43.88 44.90 42.96 37.17 33.67 35.80 31.68 29.76 29.90 26.06 29.40 30.89 33.62 34.67 34.68 33.93 37.02 37.55 37.96 35.60 35.49 30.45 31.08 36.20 31.23 27.94 24.31 24.99 25.67 25.78 25.95 24.81 25.61 25.26 24.44 23.35 23.69 23.36 22.58 22.95 21.73 20.34 21.16 21.35 20.46
41.41 41.38 41.21 41.17 41.49 42.15 41.19 40.54 41.30 42.33 40.98 35.66 32.05 23.39 28.33 25.86 26.20 27.03 28.13 29.54 30.25 31.74 34.13 34.38 33.30 33.65 34.03 32.38 33.49 29.50 30.27 31.86 27.11 25.58 22.27 23.14 23.48 23.82 24.50 24.86 23.56 21.89 22.27 22.03 21.38 21.28 20.62 20.07 19.78 20.15 19.90 19.96 19.04 17.69
41.02 40.48 40.42 39.20 38.87 38.73 38.55 38.92 39.81 40.19 35.45 28.69 29.57 22.23 22.78 25.68 26.79 27.50 29.27 30.28 30.51 33.06 34.38 33.95 34.35 35.25 32.20 28.45 30.08 28.77 26.32 25.08 24.86 22.28 22.28 23.93 23.96 23.72 23.08 22.81 21.81 21.21 20.90 20.62 21.02 19.66 19.20 19.12 18.52 18.25 19.13 19.17 18.78 18.03
42.05 42.42 38.16 39.10 38.13 37.51 38.26 37.62 38.16 37.30 31.88 27.11 25.42 24.35 27.52 27.59 26.68 28.18 29.01 29.62 32.13 32.77 34.95 34.74 30.65 28.57 25.62 28.61 24.71 22.79 25.35 22.15 20.96 23.10 23.46 23.40 22.49 22.66 22.64 22.73 22.64 22.43 21.77 21.06 20.99 20.30 20.02 19.05 18.25 18.19 18.38 18.18 17.99 17.48
42.83 41.68 37.37 37.10 37.12 36.65 37.51 36.45 34.33 27.69 25.93 24.43 22.61 26.51 26.41 25.45 24.65 26.45 28.13 28.34 32.16 31.95 30.39 31.41 26.03 22.53 28.74 24.54 19.63 21.67 20.51 21.43 23.56 24.37 25.10 24.22 22.54 22.10 22.56 22.53 22.72 22.80 22.30 22.06 22.09 21.88 21.61 22.23 22.43 20.94 18.81 19.11 19.09 17.88
42.29 42.55 39.99 37.76 39.50 37.27 34.20 33.64 29.26 26.55 21.32 24.80 22.25 24.57 25.47 26.22 26.57 27.47 28.54 30.10 31.93 30.39 29.88 24.25 28.82 23.02 21.22 18.28 19.30 21.00 22.74 24.35 24.16 23.42 23.14 23.65 23.81 23.66 23.90 22.81 22.60 22.55 22.28 22.06 22.17 22.28 22.10 21.53 20.51 19.54 18.94 18.90 18.57 18.11
41.56 42.05 40.48 40.35 39.49 35.16 29.54 29.45 31.12 21.99 23.01 25.28 25.76 26.50 26.33 26.26 27.65 28.92 29.20 29.75 30.85 31.50 29.72 26.75 21.72 19.57 19.12 22.33 20.83 21.67 22.36 22.03 20.55 20.81 21.11 21.70 21.77 20.93 21.02 21.66 21.93 21.86 21.55 21.43 21.02 20.29 20.04 20.26 20.57 21.25 21.03 21.08 19.92 19.87
39.73 39.57 39.43 39.11 39.10 32.66 26.52 26.55 32.02 25.13 22.04 23.68 25.75 23.87 23.94 24.22 26.72 27.40 26.34 26.66 26.30 24.55 19.86 18.00 18.06 21.26 21.64 23.30 24.37 23.16 23.00 23.41 21.88 19.10 19.13 21.37 22.85 22.86 23.15 22.71 21.45 21.43 21.25 20.72 20.66 20.59 20.55 19.46 19.09 18.60 19.08 19.03 18.92 17.26
40.19 39.47 39.57 40.27 36.15 33.80 29.68 27.17 25.43 25.21 24.88 23.23 25.31 24.44 23.19 24.96 23.07 22.86 22.67 24.78 20.38 18.42 16.73 19.60 19.86 22.07 24.90 24.78 25.12 25.10 25.02 25.80 25.21 24.07 21.72 20.11 21.61 21.50 21.10 21.50 21.93 22.22 21.55 21.20 19.78 18.02 18.12 17.67 17.92 18.23 18.08 17.03 16.73 16.32
40.46 38.48 40.55 38.16 32.79 31.36 28.94 30.71 26.99 28.57 25.26 24.31 24.11 24.62 22.27 21.15 20.39 20.71 23.18 19.16 17.44 18.68 21.74 22.09 22.39 22.58 21.69 21.24 22.12 22.99 22.71 22.22 21.63 21.35 20.94 21.93 21.08 21.16 20.65 21.13 20.55 18.80 18.93 19.07 19.05 18.13 17.41 17.39 17.74 17.42 16.83 15.88 16.13 15.67
38.01 39.62 37.11 34.81 30.00 28.99 25.83 32.93 27.07 27.64 23.52 22.77 24.45 20.89 21.22 20.90 21.51 25.84 18.19 18.63 19.30 22.11 22.34 21.39 21.06 21.40 19.87 20.59 20.82 21.33 22.53 22.33 21.53 21.17 20.97 20.77 20.49 20.40 19.93 19.61 19.95 18.32 17.20 16.85 18.36 18.01 15.47 11.47 13.60 15.74 15.53 16.59 16.04 13.95
35.10 29.56 28.54 29.46 28.72 23.91 29.06 25.83 28.76 26.42 26.08 23.61 20.89 17.53 19.17 21.46 24.24 19.96 15.03 17.22 19.46 22.63 21.39 21.22 21.82 20.64 21.15 21.07 20.39 20.07 20.97 22.18 20.99 20.79 21.40 20.46 18.60 17.76 18.57 17.89 17.64 17.12 17.14 17.13 16.87 16.17 15.71 14.41 10.21 15.41 14.15 14.35 13.71 13.29
26.74 20.34 26.04 23.03 28.14 25.33 23.27 23.23 23.19 24.14 21.08 21.71 19.40 19.63 20.28 24.84 19.41 17.21 15.46 17.52 19.68 20.45 21.13 22.45 22.85 22.85 21.20 20.36 19.86 19.14 20.97 22.13 20.18 17.78 18.95 19.97 18.83 18.36 17.15 16.86 16.20 15.95 17.89 18.10 16.17 15.33 13.93 13.99 13.91 13.85 13.06 13.11 10.54 9.09
17.91 19.30 21.33 23.07 24.19 24.02 24.69 21.57 22.06 21.79 20.85 18.31 18.21 20.65 24.27 21.92 16.99 15.45 17.39 19.42 20.20 20.97 22.02 21.96 21.98 21.41 20.84 21.69 19.83 18.88 18.53 21.12 21.62 17.71 16.77 18.10 17.61 17.94 16.81 15.99 16.00 14.19 15.64 15.52 15.87 14.88 13.51 12.35 11.93 8.51 10.79 8.56 5.18 7.09
17.07 17.49 19.80 22.46 23.81 24.95 23.62 24.41 25.15 22.60 19.13 17.06 19.83 18.45 19.83 13.73 12.66 14.63 18.98 21.84 19.90 21.04 22.06 22.99 23.41 22.09 19.80 18.22 18.04 18.09 18.01 17.55 16.76 15.79 16.50 16.09 15.91 16.22 16.00 14.72 11.23 12.95 15.12 13.38 13.63 12.50 11.65 11.19 10.68 9.99 9.90 11.40 11.30 9.64
17.12 17.55 13.43 15.95 16.78 19.58 15.51 16.77 16.52 15.79 17.34 18.73 20.10 12.20 11.58 12.64 13.01 18.45 18.82 20.40 20.69 20.83 20.28 20.12 21.00 20.67 19.12 18.05 18.10 17.29 16.34 15.89 15.30 15.83 16.01 15.46 15.09 14.33 12.97 12.89 11.20 8.30 11.44 10.75 11.54 11.63 11.06 10.10 9.91 10.11 9.41 8.89 8.88 9.44
15.85 18.17 14.62 7.22 12.61 12.96 11.92 13.11 13.91 14.10 15.36 19.41 16.13 12.87 11.43 13.51 17.83 16.99 18.35 19.70 21.26 20.18 17.85 16.71 16.61 17.78 16.88 16.80 17.60 17.96 17.89 16.84 12.63 7.95 7.09 13.09 14.08 12.73 13.53 13.17 13.20 12.04 12.42 11.95 6.90 8.47 10.04 9.42 9.07 8.87 8.64 8.81 9.30 8.65
13.81 19.42 12.25 9.70 8.37 8.70 10.75 14.82 13.40 16.37 16.83 17.35 15.72 13.58 13.15 13.93 17.60 20.59 19.91 20.29 19.64 18.64 18.25 17.92 17.93 18.32 15.95 15.96 13.67 13.29 14.09 13.62 12.22 12.54 12.22 11.47 11.43 11.84 12.32 11.60 10.69 10.66 10.35 10.96 10.54 9.52 8.32 9.03 9.34 8.50 7.72 7.88 8.76 7.90
19.25 18.74 13.72 12.33 9.60 13.13 14.94 16.49 17.70 18.16 18.52 17.70 18.55 14.76 12.84 13.66 15.30 16.43 16.87 17.88 17.40 16.98 16.43 14.92 15.21 16.77 15.66 15.03 15.95 13.63 11.82 10.49 7.50 7.93 10.32 11.29 11.13 11.14 9.16 8.23 9.14 9.66 9.87 8.77 7.94 8.08 6.58 6.62 7.84 6.79 6.39 4.96 3.90 2.10
16.79 13.77 11.91 8.72 9.98 14.23 17.12 17.55 17.05 16.33 16.69 15.80 14.82 16.09 16.58 15.93 12.45 14.83 15.40 18.23 17.39 16.26 12.35 16.53 15.82 14.20 13.28 12.46 11.69 10.53 8.91 10.05 8.91 8.30 8.09 9.36 9.83 7.89 8.86 8.77 8.45 8.75 7.52 6.49 7.11 6.45 5.33 4.30 4.53 4.91 4.37 3.89 3.38 1.76
16.63 16.49 15.89 14.52 12.55 13.58 14.69 17.66 16.65 14.85 16.46 15.07 13.64 14.31 13.86 14.99 10.18 13.19 14.70 15.59 15.83 16.98 15.78 14.85 14.05 12.31 10.72 10.95 11.04 10.10 9.77 8.30 4.67 4.77 3.37 2.49 0.94 3.31 5.96 9.60 8.23 7.35 5.24 5.51 6.13 5.89 4.10 3.34 3.36 3.41 2.54 2.07 1.44 1.61
MSLP
1007.77 1007.37 1006.97 1006.58 1006.22 1005.93 1005.74 1005.70 1005.84 1006.55 1007.55 1008.21 1009.01 1009.77 1010.40 1011.08 1011.84 1012.50 1012.33 1012.78 1013.41 1012.97 1011.74 1011.37 1010.68 1010.49 1010.59 1009.84 1010.14 1010.72 1011.41 1011.20 1011.36 1010.53 1008.85 1007.29 1006.07 1005.10 1004.18 1004.24 1003.81 1004.27 1004.89 1004.68 1004.64 1003.69 1002.54 1001.60 1001.56 1002.16 1002.84 1002.80 1003.13 1003.50
1006.19 1005.72 1005.27 1004.82 1004.36 1003.93 1003.70 1003.53 1003.69 1004.40 1005.60 1006.74 1007.69 1008.60 1009.41 1010.26 1011.07 1011.88 1011.86 1011.82 1012.87 1013.08 1011.63 1011.29 1010.68 1010.30 1010.32 1009.98 1010.58 1010.87 1010.29 1010.04 1009.30 1008.83 1007.42 1007.13 1006.12 1005.42 1004.44 1003.85 1004.16 1003.87 1003.59 1003.15 1003.21 1002.79 1002.27 1001.87 1002.58 1003.48 1003.94 1004.00 1004.19 1004.23
1004.65 1004.13 1003.58 1003.06 1002.59 1002.17 1002.08 1002.27 1002.40 1002.81 1004.06 1005.43 1006.49 1007.49 1008.40 1009.30 1010.10 1010.85 1010.90 1011.20 1012.36 1012.80 1012.10 1011.15 1010.10 1009.77 1009.72 1010.01 1010.04 1010.61 1009.92 1010.30 1008.94 1007.71 1007.93 1007.03 1006.33 1005.69 1004.97 1003.65 1003.31 1002.86 1003.99 1003.01 1003.33 1002.14 1002.68 1002.33 1003.30 1004.12 1004.69 1004.96 1005.02 1005.09
1002.96 1002.30 1001.74 1001.27 1001.01 1000.83 1000.66 1000.73 1001.45 1002.07 1003.17 1004.37 1005.47 1006.43 1007.40 1008.33 1009.08 1009.97 1010.44 1010.72 1011.56 1011.89 1011.47 1009.19 1008.91 1008.97 1008.81 1008.94 1009.22 1009.98 1009.75 1009.56 1009.28 1008.97 1008.19 1007.65 1006.64 1005.43 1004.88 1003.97 1003.25 1002.72 1003.06 1002.83 1002.92 1002.72 1002.65 1002.71 1004.02 1005.15 1005.54 1005.70 1005.90 1006.06
1001.55 1000.84 1000.14 999.65 999.58 999.52 999.42 999.95 1000.73 1001.55 1002.52 1003.52 1004.52 1005.46 1006.33 1007.17 1008.12 1009.19 1009.92 1010.16 1010.64 1010.57 1009.29 1008.74 1007.84 1007.47 1007.63 1008.02 1008.36 1009.09 1009.76 1010.01 1009.95 1008.96 1008.73 1007.88 1006.71 1006.25 1005.51 1004.98 1003.96 1003.31 1003.12 1003.44 1003.62 1004.27 1004.30 1004.24 1005.33 1006.22 1006.57 1006.94 1007.34 1007.61
1000.30 999.60 999.12 998.67 998.43 998.47 998.66 999.33 1000.04 1000.92 1001.81 1002.71 1003.65 1004.47 1005.30 1006.14 1007.30 1008.36 1008.78 1009.65 1009.93 1010.15 1010.47 1008.97 1007.21 1006.42 1006.70 1007.19 1007.75 1008.47 1009.20 1009.79 1009.72 1009.19 1008.78 1007.74 1007.16 1006.94 1006.37 1005.23 1004.47 1004.73 1005.33 1005.91 1005.72 1006.63 1006.69 1006.57 1006.78 1007.77 1008.42 1008.91 1009.26 1009.36
999.39 999.01 998.46 997.92 997.53 997.58 997.93 998.63 999.39 1000.22 1001.13 1002.04 1002.96 1003.75 1004.43 1005.29 1006.42 1006.76 1006.34 1006.66 1008.85 1010.65 1010.92 1009.11 1007.26 1006.23 1006.67 1007.17 1007.73 1008.45 1008.96 1009.25 1009.76 1009.27 1008.92 1008.05 1007.43 1007.42 1007.11 1006.62 1007.28 1007.35 1007.50 1007.44 1008.01 1007.99 1007.69 1008.54 1009.07 1010.05 1010.37 1010.53 1010.66 1010.96
998.96 998.48 997.90 997.44 997.16 997.02 997.17 997.86 998.70 999.60 1000.52 1001.47 1002.47 1003.51 1004.47 1005.23 1006.17 1006.55 1006.21 1006.64 1008.09 1009.94 1009.51 1007.78 1006.48 1006.42 1006.53 1006.87 1007.34 1007.92 1008.39 1008.79 1008.70 1008.35 1008.47 1007.67 1007.48 1007.92 1008.57 1008.88 1008.79 1009.29 1009.35 1009.14 1009.80 1009.97 1010.13 1010.56 1011.14 1011.56 1011.80 1011.98 1012.09 1012.68
998.47 998.06 997.51 996.71 995.83 996.44 996.83 997.35 998.15 999.17 1000.20 1001.21 1002.00 1003.24 1005.16 1005.81 1006.29 1005.88 1006.56 1007.46 1007.98 1008.46 1007.83 1007.06 1006.07 1005.88 1006.40 1006.41 1006.82 1007.30 1007.77 1008.20 1008.38 1008.06 1008.13 1008.33 1008.16 1009.51 1010.95 1010.98 1011.37 1011.92 1011.72 1011.47 1011.34 1010.85 1011.34 1011.88 1012.27 1012.58 1012.88 1013.18 1013.48 1014.28
998.21 997.74 997.15 996.38 995.91 996.25 996.86 997.46 998.26 999.14 1000.15 1001.33 1002.84 1004.24 1005.00 1005.37 1005.84 1006.75 1007.93 1008.13 1008.16 1007.63 1006.89 1006.06 1005.30 1005.89 1006.08 1006.26 1006.48 1006.95 1007.31 1007.12 1007.47 1007.96 1008.39 1008.40 1010.29 1011.79 1012.44 1013.08 1013.57 1013.55 1013.22 1013.14 1012.66 1012.28 1012.97 1013.13 1013.55 1014.20 1014.63 1015.02 1015.33 1015.90
998.42 997.99 997.29 996.16 996.08 996.52 997.30 997.91 998.65 999.77 1000.72 1002.02 1003.13 1003.56 1004.17 1005.04 1006.10 1006.87 1007.16 1007.23 1007.23 1006.70 1005.90 1005.53 1005.39 1005.96 1006.91 1006.48 1006.38 1006.33 1006.61 1006.60 1006.73 1007.39 1008.20 1008.67 1010.80 1012.85 1013.63 1014.19 1014.73 1014.83 1014.74 1014.77 1014.86 1015.09 1015.25 1015.27 1015.20 1015.57 1016.21 1016.66 1017.03 1017.39
999.01 998.53 997.96 997.48 997.08 997.62 998.35 999.02 999.56 1000.15 1001.06 1001.60 1002.49 1003.95 1004.68 1005.13 1005.52 1005.82 1006.00 1006.18 1005.80 1005.46 1005.75 1005.71 1005.72 1005.99 1006.65 1006.87 1006.86 1006.47 1006.45 1006.71 1006.59 1007.38 1008.09 1009.35 1012.68 1014.04 1014.81 1015.54 1015.86 1016.06 1016.24 1016.39 1016.52 1016.58 1016.76 1016.80 1017.05 1017.38 1017.83 1018.27 1018.74 1019.05
999.51 999.33 999.14 998.89 998.71 998.83 999.44 999.80 1000.06 1000.93 1000.84 1001.62 1002.84 1004.26 1004.37 1005.72 1005.50 1005.53 1005.88 1005.91 1005.93 1006.24 1006.37 1006.54 1006.60 1006.80 1007.41 1007.41 1007.38 1007.13 1006.99 1007.00 1007.37 1008.16 1009.38 1011.96 1013.84 1014.94 1015.59 1016.22 1016.88 1017.21 1017.56 1017.76 1018.08 1018.24 1018.36 1018.62 1018.91 1019.15 1019.18 1019.64 1020.00 1020.24
1000.20 1000.10 1000.03 1000.11 1000.22 1000.36 1000.83 1001.33 1001.37 1001.24 1001.67 1002.57 1003.79 1005.43 1005.92 1006.48 1006.86 1007.04 1006.95 1006.95 1007.59 1007.42 1007.18 1007.19 1007.31 1007.37 1007.87 1008.02 1008.02 1007.67 1008.14 1008.11 1008.40 1009.43 1011.43 1013.67 1015.24 1016.29 1016.99 1017.48 1017.86 1018.42 1018.73 1018.96 1019.35 1019.52 1019.70 1019.98 1020.20 1020.37 1020.64 1020.87 1021.11 1021.40
1000.93 1000.86 1001.07 1001.63 1001.69 1001.57 1001.64 1001.79 1001.73 1001.88 1003.17 1004.32 1005.21 1006.87 1007.87 1008.54 1008.65 1008.66 1008.53 1008.32 1008.50 1008.37 1007.95 1007.74 1007.89 1008.06 1008.32 1008.69 1008.67 1008.86 1009.03 1009.14 1010.15 1011.62 1013.66 1015.49 1016.69 1017.42 1018.04 1018.58 1019.00 1019.36 1019.68 1019.87 1020.22 1020.47 1020.79 1021.13 1021.24 1021.55 1021.89 1022.05 1022.31 1022.59
1001.29 1001.29 1002.28 1002.34 1002.30 1002.38 1002.37 1002.49 1002.64 1003.57 1005.58 1007.15 1008.44 1008.80 1009.21 1008.97 1009.24 1009.22 1009.13 1009.00 1009.15 1008.85 1008.51 1008.32 1008.21 1008.41 1008.92 1009.01 1009.26 1009.79 1009.78 1010.96 1012.82 1014.36 1015.91 1017.07 1017.96 1018.62 1019.09 1019.53 1019.89 1020.26 1020.55 1020.89 1021.15 1021.43 1021.67 1021.94 1022.21 1022.59 1022.88 1023.08 1023.30 1023.43
1001.53 1001.97 1002.80 1002.80 1002.80 1002.89 1002.80 1003.04 1004.21 1006.07 1007.71 1008.84 1010.07 1010.49 1010.32 1010.44 1010.51 1010.43 1010.27 1010.10 1009.90 1009.14 1008.60 1008.47 1008.56 1009.33 1009.66 1009.96 1011.16 1012.27 1012.84 1014.23 1015.29 1016.31 1017.31 1018.31 1019.01 1019.64 1020.09 1020.45 1020.75 1021.01 1021.28 1021.52 1021.77 1022.05 1022.31 1022.53 1022.59 1022.68 1022.97 1023.42 1023.64 1023.97
1001.70 1002.42 1002.68 1002.78 1002.82 1003.06 1004.11 1004.94 1006.41 1008.05 1009.81 1010.58 1010.81 1011.31 1011.52 1011.58 1011.30 1011.16 1011.01 1010.63 1009.80 1009.46 1009.52 1010.05 1010.23 1010.80 1011.56 1012.16 1013.38 1014.87 1015.66 1016.48 1017.34 1018.12 1018.94 1019.61 1020.11 1020.54 1020.83 1021.09 1021.45 1021.65 1021.84 1022.14 1022.37 1022.56 1022.64 1022.65 1022.73 1023.05 1023.44 1023.77 1023.97 1024.20
1002.26 1002.34 1002.56 1002.95 1002.91 1003.47 1005.09 1006.67 1007.24 1009.04 1010.95 1011.51 1011.91 1012.06 1012.14 1012.37 1012.43 1012.18 1011.84 1011.38 1010.90 1010.57 1010.72 1011.37 1012.37 1013.35 1014.35 1015.01 1015.70 1016.65 1017.49 1018.09 1018.82 1019.63 1020.37 1020.96 1021.29 1021.60 1021.82 1022.01 1022.16 1022.28 1022.46 1022.64 1022.80 1023.04 1023.34 1023.39 1023.37 1023.38 1023.57 1023.66 1023.82 1024.18
1002.87 1002.95 1003.10 1003.05 1002.96 1003.89 1005.99 1007.62 1008.12 1009.42 1010.95 1012.08 1012.38 1012.50 1012.78 1013.05 1013.08 1012.94 1012.77 1012.35 1012.03 1012.27 1013.55 1014.75 1015.93 1016.59 1016.82 1017.30 1017.72 1018.24 1018.84 1019.34 1019.70 1020.26 1021.00 1021.58 1021.91 1022.09 1022.25 1022.38 1022.62 1022.83 1023.04 1023.33 1023.47 1023.45 1023.65 1023.99 1024.38 1024.55 1024.53 1024.51 1024.52 1024.99
1002.81 1003.30 1003.25 1003.04 1003.66 1004.93 1006.71 1007.87 1009.03 1010.60 1011.50 1011.95 1012.53 1012.73 1013.28 1013.63 1013.68 1013.66 1013.61 1013.80 1014.13 1015.73 1017.00 1018.04 1018.42 1018.71 1018.81 1019.04 1019.33 1019.57 1019.79 1019.94 1019.99 1020.37 1021.06 1021.81 1022.43 1022.66 1022.89 1023.05 1023.16 1023.13 1023.31 1023.59 1023.85 1024.33 1024.45 1024.69 1025.05 1025.30 1025.44 1025.71 1025.94 1026.17
1003.14 1003.30 1003.22 1003.55 1004.62 1006.16 1007.66 1008.48 1009.11 1009.96 1010.92 1011.81 1012.25 1012.65 1013.27 1013.91 1014.35 1014.79 1015.23 1015.55 1017.62 1018.92 1018.96 1019.18 1019.46 1019.70 1020.02 1020.32 1020.59 1020.81 1021.13 1021.24 1021.57 1021.89 1022.27 1022.43 1022.54 1022.89 1023.24 1023.50 1023.64 1024.03 1024.29 1024.50 1024.68 1025.01 1025.36 1025.68 1025.92 1026.04 1026.21 1026.47 1026.46 1026.65
1003.65 1003.41 1003.80 1004.51 1005.61 1006.95 1009.03 1009.19 1009.06 1009.46 1010.00 1011.29 1012.00 1012.64 1013.52 1014.31 1015.20 1015.38 1016.76 1018.37 1019.69 1020.53 1020.57 1020.65 1020.87 1021.06 1021.35 1021.76 1021.89 1021.93 1021.94 1021.93 1022.22 1022.67 1023.01 1023.29 1023.65 1023.98 1024.15 1024.39 1024.61 1024.78 1025.04 1025.45 1025.64 1025.80 1026.33 1026.87 1026.98 1026.83 1026.99 1026.89 1026.94 1027.30
1004.63 1005.43 1005.81 1006.00 1006.67 1008.09 1008.81 1009.01 1009.20 1009.64 1010.41 1011.06 1011.95 1013.05 1013.97 1014.60 1015.36 1016.36 1018.06 1019.64 1020.92 1021.10 1021.20 1021.39 1021.35 1021.52 1021.81 1022.02 1022.25 1022.71 1022.89 1023.00 1023.22 1023.58 1023.70 1023.83 1024.20 1024.68 1025.01 1025.32 1025.68 1025.97 1026.09 1026.22 1026.39 1026.65 1026.89 1027.20 1027.50 1027.14 1027.38 1027.30 1027.43 1027.34
1005.69 1008.49 1007.93 1007.93 1008.01 1008.25 1008.90 1009.45 1009.84 1010.18 1011.02 1011.86 1012.68 1013.65 1014.60 1014.84 1015.61 1017.28 1018.75 1020.33 1021.02 1021.43 1021.62 1021.60 1021.52 1021.63 1022.02 1022.65 1023.30 1023.81 1023.81 1023.58 1023.79 1024.28 1024.76 1024.82 1025.01 1025.25 1025.61 1026.05 1026.47 1026.80 1026.81 1026.57 1026.79 1027.02 1027.41 1027.55 1027.59 1027.61 1027.66 1027.62 1027.70 1027.74
1007.98 1009.90 1009.65 1009.30 1009.27 1008.93 1009.34 1009.89 1010.41 1011.07 1011.92 1012.82 1013.85 1014.70 1014.89 1015.31 1016.55 1018.27 1019.58 1020.76 1021.40 1021.92 1022.09 1022.10 1022.07 1022.26 1022.64 1023.11 1023.57 1024.20 1024.70 1024.73 1024.60 1025.06 1025.71 1025.81 1025.82 1025.68 1025.86 1026.14 1026.39 1027.10 1027.70 1027.65 1027.38 1027.30 1027.50 1027.86 1027.91 1028.10 1027.91 1027.93 1028.42 1028.33
1009.74 1010.86 1011.43 1011.77 1011.01 1010.51 1010.96 1011.58 1011.81 1012.24 1012.93 1013.77 1014.50 1015.18 1015.63 1016.74 1018.42 1020.25 1021.30 1021.75 1022.24 1022.87 1023.08 1023.02 1022.76 1022.97 1023.72 1024.50 1025.15 1025.60 1025.91 1026.08 1026.02 1026.43 1026.81 1026.99 1027.12 1027.16 1027.07 1027.08 1027.52 1028.20 1028.33 1028.41 1028.30 1028.13 1028.01 1028.07 1028.15 1028.25 1028.20 1028.09 1028.03 1028.26
1011.84 1012.36 1012.58 1013.21 1013.00 1012.99 1013.11 1013.57 1014.03 1014.65 1015.23 1015.75 1015.74 1016.76 1017.62 1018.69 1020.14 1021.32 1022.18 1023.00 1023.35 1023.77 1024.16 1024.42 1024.40 1024.68 1025.11 1025.63 1025.97 1026.35 1026.77 1027.10 1027.32 1027.29 1027.45 1027.69 1027.98 1028.22 1028.46 1028.73 1029.24 1029.52 1029.15 1029.29 1029.19 1029.01 1028.79 1028.73 1028.61 1028.52 1028.50 1028.48 1028.43 1028.58
1013.03 1013.69 1014.19 1014.85 1014.76 1015.49 1016.35 1016.44 1016.77 1017.56 1018.01 1017.12 1017.35 1018.61 1020.19 1021.68 1022.30 1022.87 1023.48 1023.73 1024.00 1024.26 1024.68 1025.17 1025.71 1026.07 1026.40 1026.67 1026.78 1026.99 1027.15 1027.24 1027.12 1027.32 1027.29 1027.26 1027.60 1028.30 1028.95 1029.10 1029.24 1029.21 1029.13 1029.32 1029.69 1029.50 1029.19 1029.16 1029.12 1029.19 1029.03 1028.81 1028.70 1028.78
1014.28 1014.53 1015.09 1016.22 1016.97 1018.06 1019.09 1018.93 1019.05 1019.10 1019.10 1018.95 1019.68 1020.85 1021.90 1023.18 1023.90 1024.19 1024.22 1024.26 1024.32 1024.79 1025.32 1025.78 1026.11 1026.17 1026.52 1026.74 1027.34 1027.83 1028.32 1028.53 1028.60 1028.34 1027.91 1028.04 1028.47 1029.15 1029.32 1029.42 1029.53 1029.57 1029.65 1029.41 1029.27 1029.12 1029.34 1029.26 1029.06 1029.17 1029.13 1028.83 1028.54 1028.47
1014.73 1014.92 1015.82 1017.29 1018.85 1020.00 1020.18 1020.33 1020.09 1019.86 1019.68 1019.88 1020.41 1021.09 1022.18 1023.59 1024.97 1025.66 1025.67 1025.66 1025.80 1026.00 1026.16 1026.54 1026.85 1027.08 1027.26 1027.42 1027.50 1027.97 1028.41 1029.44 1029.78 1029.74 1029.51 1029.52 1029.65 1029.68 1030.01 1030.19 1030.17 1030.04 1029.81 1029.74 1029.67 1029.46 1029.50 1029.31 1028.96 1028.93 1028.86 1028.85 1028.87 1028.99
1015.33 1015.51 1016.19 1017.66 1019.72 1020.68 1020.51 1020.05 1020.07 1020.35 1020.76 1021.14 1021.68 1022.34 1022.79 1023.23 1024.44 1025.71 1026.90 1026.46 1026.27 1026.31 1027.06 1026.84 1027.05 1027.71 1028.39 1028.76 1028.98 1029.28 1029.44 1029.77 1030.07 1030.24 1030.22 1030.19 1030.15 1030.48 1030.43 1030.44 1030.46 1030.25 1030.11 1030.05 1029.85 1029.74 1029.64 1029.53 1029.31 1029.12 1029.03 1028.92 1028.92 1029.00
1015.96 1016.24 1016.65 1017.38 1018.99 1019.54 1020.12 1019.47 1019.74 1020.73 1021.10 1021.70 1022.68 1023.16 1023.64 1023.81 1024.96 1026.34 1027.62 1027.71 1027.39 1027.01 1027.39 1027.93 1028.46 1028.95 1029.28 1029.36 1029.52 1029.75 1030.04 1030.63 1031.21 1031.28 1031.47 1031.58 1031.73 1031.42 1030.94 1030.37 1030.44 1030.37 1030.40 1030.23 1029.97 1029.81 1029.72 1029.59 1029.41 1029.23 1029.16 1029.11 1029.07 1029.03
Wind_Speed
28 30 30 30 29 31 31 31 32 32 29 27 25 24 23 22 23 16 11 11 12 6 15 16 17 14 11 4 4 3 2 5 4 6 6 6 5 4 6 2 15 14 10 9 13 10 13 8 3 8 9 4 8 8
29 30 30 29 30 30 24 22 22 27 31 28 26 24 23 22 23 21 11 12 10 7 8 7 19 21 19 14 6 5 8 2 8 8 7 2 5 2 8 5 12 10 10 8 11 9 3 3 8 9 7 7 8 9
28 29 29 29 28 24 23 21 18 21 30 28 26 25 25 24 23 21 12 11 8 6 6 13 18 18 15 19 16 5 4 4 7 7 2 4 5 4 5 9 5 10 9 4 0 7 9 5 8 8 9 9 10 11
30 29 27 27 25 24 23 20 16 21 27 27 26 25 25 25 25 25 12 10 9 3 5 12 11 21 26 18 20 17 17 12 9 5 3 2 4 4 5 9 6 7 3 9 8 9 7 8 9 9 9 10 12 13
24 25 25 20 19 19 15 18 17 21 24 25 25 25 25 26 26 17 11 10 12 10 4 8 12 17 14 20 22 14 14 10 3 3 2 3 4 3 7 8 8 7 7 5 3 10 8 9 10 11 12 13 14 14
26 13 11 13 13 11 12 19 20 21 22 23 23 24 23 22 22 10 6 9 14 11 4 4 4 4 12 13 16 18 9 4 3 3 2 3 6 3 4 5 10 9 10 10 5 8 9 11 13 12 10 11 12 11
13 11 12 11 10 12 15 18 20 21 21 21 21 20 20 22 12 5 2 7 19 10 3 5 5 2 11 10 6 6 9 4 2 2 3 2 2 4 4 8 7 7 7 7 8 10 2 11 7 9 9 9 7 8
9 11 10 10 10 6 11 19 19 20 20 21 20 20 16 21 11 2 1 19 17 5 5 4 3 5 8 5 4 6 3 4 3 2 2 4 3 3 3 6 6 9 7 3 7 7 5 7 5 6 7 8 6 8
10 9 10 14 4 13 11 16 17 20 20 19 17 27 14 3 3 2 19 17 2 3 5 4 5 5 7 5 5 4 4 2 1 3 3 3 4 3 4 6 7 9 8 9 10 7 4 4 5 7 7 7 6 8
10 8 10 12 5 11 15 16 18 20 21 28 11 4 4 5 27 15 4 2 1 3 4 4 5 3 6 7 7 5 4 4 4 4 2 5 4 7 6 6 6 7 8 10 9 6 9 7 6 8 8 8 8 7
14 15 14 17 13 19 18 19 25 29 18 3 3 3 12 19 5 3 4 4 4 5 6 4 6 5 2 5 5 5 3 4 4 5 3 5 5 4 5 6 7 7 8 8 6 7 7 7 6 7 9 9 9 10
16 17 18 20 17 22 27 28 20 5 3 7 8 5 4 3 3 4 4 4 4 4 3 4 4 3 4 2 1 3 3 2 3 6 4 3 5 6 6 6 6 7 8 9 9 8 8 10 9 10 10 11 11 11
17 18 20 20 22 22 25 16 19 25 16 4 6 5 2 2 2 4 6 4 4 3 3 1 3 3 2 1 1 2 4 4 5 4 3 5 7 6 6 7 8 8 9 10 10 10 12 13 13 11 13 12 12 12
17 19 19 21 21 19 20 15 6 5 4 3 3 6 5 4 3 4 5 5 4 2 3 2 3 2 2 3 1 3 3 3 4 5 4 6 7 7 7 7 8 10 10 12 12 13 13 13 13 13 12 11 11 12
17 13 15 18 19 16 16 16 14 7 5 6 6 5 4 3 3 3 2 1 3 0 0 3 3 1 2 2 0 3 5 4 6 5 5 7 7 7 8 8 9 9 9 10 11 11 12 12 12 13 12 12 12 11
5 6 8 9 13 12 8 7 6 4 5 5 7 4 1 4 5 4 4 5 4 2 1 0 2 3 2 1 2 4 3 5 4 5 7 8 9 9 9 9 10 10 10 11 10 11 11 11 12 12 11 11 11 11
3 4 8 14 16 17 14 5 5 8 6 5 5 4 3 5 5 4 4 4 4 4 2 0 3 4 1 3 4 6 5 7 8 7 7 10 10 10 10 10 9 10 10 10 10 10 10 9 8 9 11 10 10 10
3 6 11 8 2 5 4 6 5 6 7 5 4 5 6 5 4 4 4 6 3 2 3 4 2 4 5 3 4 6 8 9 8 8 8 10 10 9 8 10 9 9 10 9 8 8 7 7 8 7 8 7 7 7
8 5 7 8 2 5 4 5 4 6 6 3 3 3 4 4 6 6 5 5 6 6 3 3 6 5 4 5 9 8 8 7 8 9 9 10 10 9 9 9 9 9 8 7 7 6 6 7 6 4 4 3 4 4
14 13 9 3 2 4 6 4 3 6 4 4 4 6 4 4 4 6 7 8 7 5 7 6 5 6 7 8 8 8 8 8 8 8 8 7 6 7 7 6 6 7 6 7 5 4 5 5 5 6 6 6 4 4
3 4 2 2 4 7 5 4 5 4 5 4 4 4 5 7 8 8 6 6 7 6 5 5 6 8 9 8 7 6 7 5 5 6 7 7 6 6 6 5 4 4 4 4 4 4 5 5 4 4 4 4 4 4
3 4 2 4 5 5 5 6 6 7 5 6 5 4 4 6 6 7 7 8 6 6 4 5 7 7 9 11 10 10 9 11 10 9 10 7 6 5 5 4 4 4 4 4 4 4 4 4 3 3 3 3 2 4
3 1 3 4 5 5 5 3 3 2 4 4 3 4 4 4 3 2 6 5 5 6 6 7 9 11 11 11 11 10 8 9 8 7 6 6 6 5 5 5 4 3 3 4 3 3 4 2 3 2 2 1 2 3
5 6 5 4 5 5 3 3 3 3 4 3 4 5 4 4 3 5 6 4 3 4 5 7 6 7 8 9 8 8 7 6 7 6 4 4 5 5 4 4 4 4 4 3 3 3 2 3 2 1 0 1 1 2
5 8 5 6 2 4 5 4 3 3 5 3 4 4 4 2 4 5 4 4 4 4 4 4 4 5 6 7 6 6 5 4 5 6 5 4 4 4 4 4 4 4 3 0 2 2 2 1 1 2 1 2 3 3
8 8 6 4 3 3 3 5 4 5 4 4 5 4 1 3 5 6 4 5 5 4 4 4 5 5 6 5 5 5 5 4 3 5 5 5 4 4 3 2 0 4 4 3 2 2 1 1 2 3 3 2 2 5
5 5 4 3 3 3 5 5 6 5 5 4 4 3 3 5 5 4 4 4 5 4 4 3 3 5 6 6 6 5 5 7 8 6 5 5 5 5 5 4 3 4 2 3 3 4 4 3 3 3 4 4 3 3
5 6 4 4 5 6 5 5 5 5 4 2 2 5 4 4 4 4 4 5 6 6 6 6 6 6 6 6 5 5 5 5 5 4 5 5 5 4 4 4 4 4 4 4 5 3 4 4 5 5 5 5 4 4
5 3 5 8 6 7 8 6 4 4 4 2 3 4 5 4 3 6 6 5 6 6 6 6 6 5 6 5 5 5 4 4 3 3 2 2 1 4 3 3 3 4 4 3 3 3 5 4 5 5 6 5 5 5
4 3 5 7 7 7 6 6 5 3 3 6 7 12 12 8 6 5 5 5 5 6 6 5 3 3 4 3 4 4 4 4 4 4 4 3 4 3 2 3 4 4 4 4 4 4 3 4 4 5 5 4 4 4
2 3 6 6 6 7 9 8 9 10 11 11 9 11 9 6 5 6 5 5 5 5 5 5 4 4 3 2 1 2 3 4 4 5 5 3 3 3 4 3 4 4 3 4 4 4 4 5 4 5 5 5 5 4
4 4 6 7 7 5 3 4 6 9 9 8 8 6 5 4 4 3 3 1 4 4 4 2 4 5 4 4 4 5 6 5 4 3 5 3 4 4 3 3 2 3 4 4 4 4 4 5 5 5 5 6 6 6
11 11 11 9 6 6 4 4 4 5 4 3 3 2 4 3 4 4 3 3 5 4 4 5 5 5 5 5 5 4 5 5 6 6 5 5 5 5 5 3 3 3 5 5 5 5 5 7 6 7 7 7 7 8
Wind_Direction
280 278 275 272 269 266 261 256 244 227 228 222 221 219 218 211 209 208 221 220 208 233 256 262 261 257 261 242 230 67 140 178 176 215 238 230 237 241 244 225 187 182 190 206 228 236 241 258 149 246 48 33 27 8
280 277 275 273 273 273 269 258 249 224 213 217 211 211 211 210 207 205 230 213 202 226 268 284 270 259 269 273 269 224 259 271 195 220 235 172 264 186 264 233 206 200 207 199 193 217 158 108 82 66 25 7 14 9
282 280 277 275 274 267 257 253 238 228 201 208 206 207 210 209 209 203 214 213 184 223 263 256 251 252 243 244 253 229 232 185 269 252 313 273 238 235 233 245 211 199 242 257 147 195 226 120 83 59 22 6 7 3
281 277 277 274 271 269 270 226 225 200 196 201 203 206 208 210 210 207 211 210 191 166 246 258 234 240 241 237 234 228 250 278 295 275 258 285 261 293 246 257 282 270 320 242 235 251 273 165 79 45 2 356 354 356
294 289 286 268 262 263 263 202 201 193 196 199 204 209 210 209 209 205 204 207 199 202 222 247 228 239 228 220 229 213 222 239 280 219 178 237 270 274 272 286 269 251 285 246 261 41 347 52 23 36 3 8 1 351
297 295 304 283 254 253 209 197 194 191 195 198 202 203 203 199 200 181 181 202 201 214 279 271 243 247 199 215 210 218 208 215 211 270 218 235 227 246 285 253 254 61 53 27 49 359 350 339 38 33 14 7 6 356
289 305 310 307 277 237 197 191 195 194 191 191 191 198 195 185 185 175 146 142 173 159 228 228 242 108 178 188 197 218 204 195 200 228 203 285 281 206 251 250 106 59 22 27 24 349 79 30 2 13 355 5 4 19
323 323 322 301 274 250 196 186 187 187 187 185 179 170 153 140 113 7 116 139 136 162 223 246 136 149 173 172 186 169 175 200 208 182 222 242 256 230 233 15 26 29 346 97 13 343 315 353 26 13 7 8 22 40
327 322 318 322 249 200 179 165 157 163 169 170 172 152 127 105 143 152 145 131 162 171 182 224 191 171 179 165 196 162 156 188 109 225 227 222 198 219 49 17 31 11 5 340 329 317 22 9 6 11 16 18 46 49
331 17 356 346 125 150 141 142 154 150 144 119 97 107 136 149 107 103 67 89 99 230 233 232 214 136 201 177 190 166 186 202 206 188 149 207 85 82 72 61 22 357 355 6 348 30 2 12 27 25 33 38 53 63
43 28 17 39 115 133 125 122 124 118 103 86 115 130 106 112 101 194 143 180 158 198 177 232 192 131 178 197 183 205 195 180 227 154 220 187 106 86 57 47 31 17 15 22 37 37 31 22 45 74 68 63 67 73
43 43 54 47 92 112 119 121 120 90 94 120 109 109 156 121 165 165 134 111 197 167 132 171 181 97 142 136 206 194 199 196 267 151 211 156 95 88 72 56 42 43 46 47 40 60 60 62 70 83 85 80 77 78
56 59 71 61 70 106 126 121 107 126 123 80 53 60 15 32 146 191 156 161 145 102 123 114 125 112 130 145 197 246 216 197 138 198 75 57 94 73 62 77 72 68 74 80 74 73 73 72 68 78 81 76 78 72
64 61 61 64 80 88 80 81 87 64 61 65 95 78 8 96 72 37 20 51 65 21 86 76 111 127 99 167 319 250 59 199 192 198 98 99 81 76 67 64 80 74 75 81 82 79 79 79 76 73 73 75 77 73
66 62 75 61 67 62 69 71 59 62 45 56 32 63 68 87 59 39 9 129 68 24 218 129 101 71 94 143 352 149 195 161 11 57 85 101 104 105 98 96 93 89 86 82 81 79 77 77 76 73 68 70 71 72
349 66 56 68 59 61 84 75 40 61 56 63 36 106 37 124 85 59 24 65 28 351 265 158 129 138 99 143 133 23 312 53 79 83 96 105 96 92 94 91 88 91 92 92 86 84 82 80 82 82 78 73 72 74
222 72 115 107 90 69 42 62 49 52 61 49 68 31 37 57 44 41 0 8 329 282 62 30 67 46 185 74 80 10 28 93 100 98 91 100 105 102 98 96 97 98 96 92 91 89 92 101 110 97 88 91 90 88
82 120 169 158 26 66 48 41 74 73 68 43 73 63 71 39 39 39 28 359 348 48 28 62 46 51 27 53 95 103 89 83 80 86 90 94 96 94 93 95 91 91 91 89 94 103 110 107 99 95 101 106 107 98
56 75 117 149 119 84 78 56 48 87 67 77 70 69 63 62 42 36 38 33 47 45 84 54 49 40 52 67 104 107 111 108 104 94 83 78 81 85 84 85 86 85 83 85 83 78 74 56 60 71 76 66 68 72
79 70 84 115 258 89 80 70 71 78 81 91 78 62 65 41 35 47 44 32 51 55 51 44 44 54 71 72 81 95 104 113 114 111 106 103 98 92 79 86 92 108 103 108 99 114 106 84 63 43 28 30 63 67
189 40 89 62 66 59 78 88 72 82 115 91 102 94 83 68 51 41 41 36 50 33 66 66 73 63 74 90 99 109 117 130 110 107 114 108 96 101 103 100 89 78 80 79 91 90 58 65 62 58 69 70 69 62
60 280 94 48 79 76 76 30 109 150 107 116 101 93 85 69 52 38 42 49 67 36 32 82 93 96 80 70 71 75 87 89 93 95 102 126 112 94 77 68 78 74 67 55 58 73 76 61 50 83 99 102 54 55
264 25 56 64 86 75 98 201 101 82 99 105 131 84 69 76 60 93 77 55 75 43 61 75 77 84 92 87 82 76 79 92 90 88 87 87 91 90 83 71 74 84 87 67 51 75 78 43 86 78 124 194 137 138
38 45 35 49 60 93 124 69 88 88 86 74 73 81 62 73 110 70 71 71 65 89 99 111 110 108 104 94 82 78 78 88 95 89 79 95 94 81 75 78 70 54 46 56 65 77 88 86 249 169 30 232 16 302
81 14 354 73 73 106 99 95 74 81 85 87 91 91 93 174 79 82 90 110 114 91 93 93 89 87 98 100 98 85 42 62 85 92 68 72 101 122 104 86 71 54 348 224 84 97 81 12 22 8 344 339 346 299
74 23 19 35 66 90 97 108 108 105 97 84 77 98 136 86 79 93 94 126 115 110 96 98 112 108 94 90 104 86 63 30 87 93 62 37 27 18 38 18 127 103 28 1 329 330 86 320 335 314 302 185 166 291
81 63 66 14 335 93 105 72 65 76 79 87 105 110 108 82 90 87 111 91 113 92 80 46 53 89 100 99 87 73 62 50 48 68 69 58 48 32 16 20 42 55 39 22 14 358 359 349 327 313 316 310 316 328
64 24 76 30 67 27 73 58 53 58 72 38 92 54 70 65 100 80 87 101 106 98 85 65 57 71 84 92 96 99 90 94 102 109 113 99 66 69 66 66 52 35 359 9 356 336 337 332 317 307 309 310 324 308
65 73 84 46 56 54 36 32 55 53 345 328 100 91 96 59 81 118 117 119 126 125 113 106 98 100 96 86 74 67 46 20 12 30 1 34 141 107 39 28 22 15 347 325 162 282 319 329 318 319 316 311 318 313
66 20 89 54 54 49 41 16 73 94 55 65 91 107 101 82 59 93 119 124 115 95 87 89 95 97 101 113 111 97 58 32 17 342 353 29 45 51 23 11 356 9 329 325 326 323 233 287 277 238 247 281 283 310
74 76 79 68 79 82 103 109 83 67 69 84 89 94 104 118 97 53 54 77 101 117 117 105 97 91 94 102 85 147 129 85 67 50 33 57 43 27 23 7 358 341 336 331 326 319 335 302 298 301 295 305 308 283
36 68 123 109 123 145 270 101 72 95 99 96 102 113 132 111 95 103 43 84 130 106 49 97 129 99 64 75 77 74 64 100 100 80 47 33 47 32 20 358 339 328 335 319 311 308 307 311 306 311 306 303 313 311
97 94 102 101 122 155 167 176 113 113 91 92 84 48 34 29 101 97 107 15 11 61 95 79 84 92 87 77 91 103 90 81 71 75 66 53 28 0 318 341 335 326 315 308 309 307 304 309 306 312 308 303 299 301